This is the latest recevied weather packets stored in our database for station/object OM8AGG-10. If no packets are shown the sender has not sent any weather packets the latest 10 day(s).
| Time | Temp. | Humidity | Pressure | Rain* | Wind** | Luminosity | Snow |
|---|---|---|---|---|---|---|---|
| 1788668928 | 8.33° C | 100% | 1024.1 hPa | - | - | - | - |
| 1788668028 | 7.78° C | 100% | 1024 hPa | - | - | - | - |
| 1788667127 | 7.78° C | 100% | 1023.9 hPa | - | - | - | - |
| 1788666227 | 7.78° C | 100% | 1023.7 hPa | - | - | - | - |
| 1788665327 | 7.78° C | 100% | 1023.5 hPa | - | - | - | - |
| 1788664427 | 7.78° C | 100% | 1023.4 hPa | - | - | - | - |
| 1788663527 | 7.78° C | 100% | 1023.3 hPa | - | - | - | - |
| 1788662627 | 7.78° C | 100% | 1023 hPa | - | - | - | - |
| 1788661726 | 7.78° C | 100% | 1023 hPa | - | - | - | - |
| 1788660832 | 8.33° C | 100% | 1022.8 hPa | - | - | - | - |
| 1788659926 | 9.44° C | 100% | 1022.7 hPa | - | - | - | - |
| 1788659026 | 9.44° C | 100% | 1022.8 hPa | - | - | - | - |
| 1788658126 | 9.44° C | 100% | 1022.9 hPa | - | - | - | - |
| 1788657226 | 9.44° C | 100% | 1022.5 hPa | - | - | - | - |
| 1788656326 | 10° C | 99% | 1022.4 hPa | - | - | - | - |
| 1788655426 | 10.56° C | 100% | 1022.4 hPa | - | - | - | - |
| 1788654525 | 10° C | 100% | 1022.2 hPa | - | - | - | - |
| 1788653625 | 10° C | 99% | 1022.3 hPa | - | - | - | - |
| 1788652725 | 10.56° C | 96% | 1022.2 hPa | - | - | - | - |
| 1788650925 | 10.56° C | 96% | 1022.1 hPa | - | - | - | - |
| 1788650025 | 11.11° C | 95% | 1022 hPa | - | - | - | - |
| 1788648225 | 12.22° C | 88% | 1021.9 hPa | - | - | - | - |
| 1788647324 | 12.78° C | 83% | 1021.9 hPa | - | - | - | - |
| 1788646424 | 13.33° C | 85% | 1021.8 hPa | - | - | - | - |
| 1788645524 | 13.89° C | 83% | 1021.7 hPa | - | - | - | - |
* Rain since midnight (hover to see other rain measurements)
** Current wind speed in m/s (hover to see current wind gust speed)